Weather History for KAVK - October, 2012

Change the Weather History Date:

Wednesday, October 24, 2012

  Actual Average Record
Temperature  
Mean Temperature 73 °F -  
Max Temperature 82 °F 71 °F 86 °F (2011)
Min Temperature 64 °F 43 °F 28 °F (2005)
Cooling Degree Days 8    
Growing Degree Days 23 (Base 50)    
Moisture  
Dew Point 64 °F    
Average Humidity 74    
Maximum Humidity 94    
Minimum Humidity 54    
Precipitation  
Precipitation 0.00 in - - ()
Sea Level Pressure  
Sea Level Pressure 29.74 in    
Wind  
Wind Speed 18 mph (South)    
Max Wind Speed 28 mph    
Max Gust Speed 32 mph    
Visibility 10 miles    
Events      
Averages and records for this station are not official NWS values.
T = Trace of Precipitation, MM = Missing Value Source: NWS Daily Summary

Daily Weather History Graph

Daily Weather History Graph

Search for Another Location

Airport or City:

Trip Planner

Search our weather history database for the weather conditions in past years. The results will help you decide how hot, cold, wet, or windy it might be!

Date:

Astronomy

Oct. 24, 2012 Rise Set
Actual Time 7:51 AM CDT 6:45 PM CDT
Civil Twilight 7:24 AM CDT 7:12 PM CDT
Nautical Twilight 6:54 AM CDT 7:42 PM CDT
Astronomical Twilight 6:24 AM CDT 8:12 PM CDT
Moon 3:56 PM CDT (10/24) 2:55 AM CDT (10/24)
Length of Visible Light 11h 47m
Length of Day
10h 54m
Waxing Gibbous, 76% of the Moon is Illuminated
Oct 24
Waxing Gibbous
Oct 29
Full
Nov 6
Last Quarter
Nov 13
New
Nov 20
First Quarter

Hourly Weather History & Observations

Time (CDT) Temp. Heat Index Dew Point Humidity Pressure Visibility Wind Dir Wind Speed Gust Speed Precip Events Conditions
12:00 AM 75.2 °F - 64.4 °F 69% 29.77 in 10.0 mi South 16.1 mph - N/A   Clear
12:20 AM 75.2 °F - 64.4 °F 69% 29.77 in 10.0 mi SSW 17.3 mph 24.2 mph N/A   Clear
12:40 AM 73.4 °F - 64.4 °F 73% 29.77 in 10.0 mi SSW 18.4 mph 25.3 mph N/A   Clear
1:00 AM 73.4 °F - 64.4 °F 73% 29.77 in 10.0 mi South 12.7 mph - N/A   Clear
1:20 AM 71.6 °F - 64.4 °F 78% 29.78 in 10.0 mi South 13.8 mph 18.4 mph N/A   Clear
1:40 AM 71.6 °F - 64.4 °F 78% 29.78 in 10.0 mi South 16.1 mph 19.6 mph N/A   Clear
2:00 AM 71.6 °F - 64.4 °F 78% 29.77 in 10.0 mi SSW 16.1 mph 23.0 mph N/A   Clear
2:20 AM 71.6 °F - 64.4 °F 78% 29.77 in 10.0 mi SSW 17.3 mph 23.0 mph N/A   Clear
2:40 AM 71.6 °F - 64.4 °F 78% 29.77 in 10.0 mi South 17.3 mph - N/A   Partly Cloudy
3:00 AM 71.6 °F - 64.4 °F 78% 29.77 in 10.0 mi SSW 16.1 mph 24.2 mph N/A   Clear
3:40 AM 71.6 °F - 64.4 °F 78% 29.77 in 10.0 mi South 16.1 mph 20.7 mph N/A   Clear
4:00 AM 69.8 °F - 64.4 °F 83% 29.77 in 10.0 mi South 16.1 mph - N/A   Clear
4:20 AM 69.8 °F - 64.4 °F 83% 29.76 in 10.0 mi South 15.0 mph - N/A   Clear
4:40 AM 68.0 °F - 64.4 °F 88% 29.76 in 10.0 mi South 16.1 mph - N/A   Clear
5:00 AM 68.0 °F - 64.4 °F 88% 29.76 in 10.0 mi South 15.0 mph - N/A   Clear
5:20 AM 68.0 °F - 62.6 °F 83% 29.76 in 10.0 mi South 15.0 mph - N/A   Clear
5:40 AM 66.2 °F - 62.6 °F 88% 29.77 in 10.0 mi South 12.7 mph - N/A   Clear
6:00 AM 66.2 °F - 62.6 °F 88% 29.77 in 10.0 mi South 15.0 mph - N/A   Clear
6:20 AM 66.2 °F - 62.6 °F 88% 29.78 in 10.0 mi South 13.8 mph - N/A   Clear
7:00 AM 64.4 °F - 62.6 °F 94% 29.78 in 10.0 mi South 13.8 mph - N/A   Clear
7:20 AM 64.4 °F - 62.6 °F 94% 29.78 in 9.0 mi South 15.0 mph - N/A   Clear
7:40 AM 64.4 °F - 62.6 °F 94% 29.78 in 9.0 mi South 12.7 mph - N/A   Clear
8:00 AM 64.4 °F - 62.6 °F 94% 29.78 in 7.0 mi South 13.8 mph - N/A   Clear
8:20 AM 66.2 °F - 64.4 °F 94% 29.78 in 7.0 mi South 15.0 mph - N/A   Clear
8:40 AM 66.2 °F - 64.4 °F 94% 29.77 in 8.0 mi SSW 18.4 mph - N/A   Clear
9:00 AM 68.0 °F - 64.4 °F 88% 29.78 in 8.0 mi SSW 21.9 mph 26.5 mph N/A   Clear
9:20 AM 68.0 °F - 64.4 °F 88% 29.78 in 9.0 mi SSW 20.7 mph 25.3 mph N/A   Clear
9:40 AM 71.6 °F - 64.4 °F 78% 29.80 in 9.0 mi SSW 17.3 mph - N/A   Clear
10:00 AM 71.6 °F - 64.4 °F 78% 29.79 in 9.0 mi South 18.4 mph 23.0 mph N/A   Clear
10:20 AM 75.2 °F - 64.4 °F 69% 29.79 in 9.0 mi SSW 26.5 mph 29.9 mph N/A   Clear
10:40 AM 73.4 °F - 64.4 °F 73% 29.79 in 10.0 mi SSW 17.3 mph 27.6 mph N/A   Clear
11:00 AM 75.2 °F - 64.4 °F 69% 29.79 in 10.0 mi SSW 24.2 mph 29.9 mph N/A   Clear
11:20 AM 75.2 °F - 64.4 °F 69% 29.78 in 9.0 mi South 25.3 mph 32.2 mph N/A   Clear
11:40 AM 77.0 °F - 64.4 °F 65% 29.78 in 10.0 mi SSW 27.6 mph 31.1 mph N/A   Clear
12:00 PM 75.2 °F - 64.4 °F 69% 29.78 in 10.0 mi SSW 25.3 mph 31.1 mph N/A   Clear
12:20 PM 77.0 °F - 64.4 °F 65% 29.77 in 9.0 mi SSW 21.9 mph 29.9 mph N/A   Clear
12:40 PM 77.0 °F - 64.4 °F 65% 29.77 in 10.0 mi SSW 21.9 mph 26.5 mph N/A   Clear
1:00 PM 77.0 °F - 64.4 °F 65% 29.77 in 10.0 mi SSW 21.9 mph 26.5 mph N/A   Clear
1:15 PM 77.0 °F - 64.4 °F 65% 29.75 in 10.0 mi SSW 23.0 mph 29.9 mph N/A   Clear
1:40 PM 80.6 °F 82.3 °F 64.4 °F 58% 29.74 in 10.0 mi SSW 25.3 mph 29.9 mph N/A   Clear
2:00 PM 80.6 °F 82.3 °F 64.4 °F 58% 29.73 in 10.0 mi SSW 21.9 mph 29.9 mph N/A   Clear
2:15 PM 80.6 °F 82.3 °F 64.4 °F 58% 29.73 in 10.0 mi SSW 24.2 mph 28.8 mph N/A   Clear
2:40 PM 80.6 °F 82.3 °F 64.4 °F 58% 29.72 in 10.0 mi SSW 25.3 mph 32.2 mph N/A   Clear
3:00 PM 78.8 °F - 64.4 °F 61% 29.71 in 10.0 mi South 26.5 mph 31.1 mph N/A   Clear
3:20 PM 80.6 °F 82.3 °F 64.4 °F 58% 29.72 in 10.0 mi South 21.9 mph - N/A   Clear
3:40 PM 80.6 °F 82.3 °F 64.4 °F 58% 29.71 in 10.0 mi SSW 18.4 mph 25.3 mph N/A   Clear
4:00 PM 82.4 °F 83.9 °F 64.4 °F 54% 29.70 in 10.0 mi SSW 18.4 mph 24.2 mph N/A   Clear
4:20 PM 82.4 °F 83.9 °F 64.4 °F 54% 29.69 in 10.0 mi South 21.9 mph 27.6 mph N/A   Scattered Clouds
4:40 PM 82.4 °F 83.9 °F 64.4 °F 54% 29.69 in 10.0 mi South 23.0 mph 29.9 mph N/A   Partly Cloudy
5:00 PM 80.6 °F 82.3 °F 64.4 °F 58% 29.69 in 10.0 mi South 20.7 mph 28.8 mph N/A   Clear
5:20 PM 80.6 °F 82.3 °F 64.4 °F 58% 29.68 in 10.0 mi South 24.2 mph 27.6 mph N/A   Clear
5:40 PM 78.8 °F - 64.4 °F 61% 29.69 in 10.0 mi South 20.7 mph 25.3 mph N/A   Partly Cloudy
5:55 PM 77.0 °F - 64.4 °F 65% 29.68 in 10.0 mi South 18.4 mph 24.2 mph N/A   Partly Cloudy
6:20 PM 77.0 °F - 64.4 °F 65% 29.69 in 10.0 mi South 20.7 mph 27.6 mph N/A   Partly Cloudy
6:40 PM 75.2 °F - 64.4 °F 69% 29.68 in 10.0 mi South 16.1 mph - N/A   Clear
7:20 PM 75.2 °F - 64.4 °F 69% 29.68 in 10.0 mi South 16.1 mph 21.9 mph N/A   Mostly Cloudy
7:40 PM 73.4 °F - 64.4 °F 73% 29.68 in 10.0 mi South 18.4 mph - N/A   Mostly Cloudy
8:00 PM 73.4 °F - 64.4 °F 73% 29.67 in 10.0 mi South 19.6 mph 25.3 mph N/A   Mostly Cloudy
8:20 PM 73.4 °F - 64.4 °F 73% 29.67 in 10.0 mi South 20.7 mph 26.5 mph N/A   Scattered Clouds
8:40 PM 73.4 °F - 64.4 °F 73% 29.66 in 10.0 mi South 23.0 mph 29.9 mph N/A   Mostly Cloudy
9:00 PM 71.6 °F - 64.4 °F 78% 29.66 in 10.0 mi South 21.9 mph 29.9 mph N/A   Scattered Clouds
9:20 PM 71.6 °F - 64.4 °F 78% 29.67 in 10.0 mi South 19.6 mph 27.6 mph N/A   Scattered Clouds
9:40 PM 71.6 °F - 64.4 °F 78% 29.66 in 10.0 mi South 19.6 mph - N/A   Partly Cloudy
9:55 PM 71.6 °F - 64.4 °F 78% 29.65 in 10.0 mi South 19.6 mph - N/A   Partly Cloudy
10:20 PM 71.6 °F - 64.4 °F 78% 29.64 in 10.0 mi South 19.6 mph 25.3 mph N/A   Clear
10:40 PM 71.6 °F - 64.4 °F 78% 29.64 in 10.0 mi South 21.9 mph 27.6 mph N/A   Clear
11:00 PM 71.6 °F - 64.4 °F 78% 29.65 in 10.0 mi South 20.7 mph - N/A   Clear
11:40 PM 71.6 °F - 62.6 °F 73% 29.64 in 10.0 mi South 21.9 mph - N/A   Clear